Vertical_Velocity
-3 1 -1 -1 1 3 1 -0 -2 -2 -2 1 -3 -4 -5 -3 2 -2 4 2 -1 -1 1 1 -1 2 -4 1 2 -2 -5 2 4 1 -2 -0 -2 1 0 0 1 0 0 -0 -1
-0 -2 -1 -1 0 2 0 1 -1 -2 0 -4 -3 -1 -8 -6 -3 -0 11 1 -0 -4 1 1 -3 -2 -2 0 -3 -5 -1 7 2 -2 1 -2 0 -1 1 1 1 -1 -1 -1 -2
-1 -1 0 -2 0 -1 -0 -1 -1 -4 -4 -2 0 -3 -4 -3 -6 6 -9 1 1 -8 4 -3 -0 -3 0 -2 -1 1 4 -0 5 0 -2 -2 3 -1 1 2 -2 -2 -1 -1 0
-4 -3 -0 -1 1 -1 -1 -2 -0 -1 -1 -2 -3 -4 -4 -2 -9 1 9 6 5 1 5 6 -1 -7 -2 -2 2 -4 -2 2 4 -1 -1 -1 -1 2 1 1 -0 -1 -0 -0 0
-3 -4 -3 1 -0 1 -1 -4 -1 -1 -2 -3 -5 -5 -4 -5 8 7 6 0 0 -4 7 4 3 3 -4 5 1 -2 1 5 4 -2 -2 -0 -1 -5 6 1 0 -3 0 2 -3
-2 -2 -1 -2 1 0 0 -1 -2 -3 -2 -4 -7 -1 -6 3 -2 -11 2 9 7 -2 3 -0 7 8 2 -1 -4 10 -1 5 -2 -2 -2 3 -3 -5 4 1 -8 1 -0 -1 -0
-1 -5 -3 -1 -0 -0 0 3 0 -0 -2 -2 -7 -3 -6 13 -4 -3 -10 -4 0 -1 -3 3 6 -2 10 5 5 -1 -2 0 4 -2 1 -1 -3 7 -6 -0 -4 4 0 -2 1
-2 -4 -1 1 0 -0 0 1 -2 -2 -2 -7 -3 -3 2 1 -6 -1 -7 -8 -4 1 2 1 6 -2 -5 1 -3 -7 -3 -6 7 -2 4 -3 5 3 -2 -0 -1 -1 -1 1 1
-2 -3 -1 0 0 1 -0 -1 -2 -3 -4 -3 -3 -7 -2 9 -1 -12 -11 -5 -7 -4 8 4 1 -2 4 -2 -1 -9 3 6 -3 1 -0 -11 12 -9 1 -0 -1 -0 1 -0 -1
-3 -2 -1 -1 2 -1 -3 -1 -0 -1 -4 -1 3 -10 2 -5 0 -7 -8 3 2 1 8 -0 -2 -3 7 -14 -28 2 1 2 3 -2 -3 -5 12 -7 1 1 -1 1 2 0 1
-5 -1 -2 -1 -1 -1 -1 -3 -0 -3 0 -3 6 -1 -3 -1 1 -8 -1 -0 2 7 -2 0 -5 -20 -6 4 9 6 -1 3 8 -2 -4 -0 4 -1 -0 3 -0 1 1 1 -1
-3 -2 0 -1 -0 1 -2 -1 -1 0 -4 -0 2 0 -5 1 1 -3 2 -3 1 0 7 7 -24 14 14 -2 1 1 -2 1 2 -4 -4 0 2 4 -3 2 -1 0 -0 -2 -2
-3 -2 0 -2 2 -0 -0 -2 -3 4 -2 -1 -2 3 3 3 2 0 -1 7 -3 13 7 -19 -3 4 4 23 -5 1 2 7 -1 -3 1 0 6 2 -0 1 -0 -0 -1 -1 -1
-3 -0 0 -3 3 -0 1 -3 1 14 -5 2 2 7 2 2 -2 -5 4 1 -9 -3 16 2 16 3 4 5 2 -1 1 5 0 -1 -3 -0 2 3 0 1 -2 -1 -2 -2 -2
-3 0 -1 -2 -1 0 1 3 6 15 -12 -4 3 -1 3 -6 8 5 1 -12 -7 14 22 -7 1 1 12 -8 1 11 4 0 -3 -1 -1 0 2 2 2 -3 1 2 -1 2 -0
-2 0 -1 -0 -0 3 5 6 12 6 -1 1 7 5 7 -4 -2 8 -1 -7 8 -1 29 8 10 4 11 6 6 0 5 -1 -0 2 -0 -1 2 11 1 -2 -2 1 -1 -1 -0
-2 1 -1 0 -0 3 7 7 3 -1 5 4 5 8 8 -0 -2 7 -1 -14 1 1 -8 8 8 11 -1 8 -2 2 1 -2 -0 -4 -2 -1 1 8 -3 1 -1 -2 -1 -1 -2
-2 2 -1 -1 4 2 6 6 8 4 11 12 13 4 1 -3 0 5 -5 -0 16 2 8 4 27 17 -20 21 -1 0 4 -2 -2 -2 1 0 -1 3 -0 1 -1 -0 -1 -0 -2
-2 3 -1 -1 2 7 7 8 6 2 4 10 0 -1 -5 -5 -4 -1 6 20 5 -5 -7 14 -2 -10 4 5 8 -1 -6 -2 -0 -0 5 1 -0 2 -1 0 -0 -1 -0 -3 -0
-1 4 -1 -1 1 2 8 2 4 3 5 8 1 -3 -4 -2 6 0 -8 5 -6 -6 16 31 15 7 -2 -2 1 2 12 -6 -4 -0 4 2 0 -0 -4 -2 -2 -1 -2 -0 1
-1 3 1 -3 5 2 11 4 1 -1 2 4 2 -3 -3 2 1 -1 13 5 -2 -8 11 13 2 -13 -5 -7 8 -9 -6 -7 -3 -6 3 3 -3 0 2 -1 -2 -1 1 -1 -3
-2 2 -2 1 4 -2 10 3 0 2 3 -3 2 -6 1 -2 -1 -9 -3 2 -5 -7 -9 5 -6 6 10 0 5 2 8 5 4 3 0 2 4 -1 0 -1 1 -1 0 -1 -0
-2 1 -3 -1 3 6 5 6 -1 1 0 -0 -4 -5 1 3 1 -1 1 3 -4 1 -3 2 2 -3 1 -0 -1 -6 -2 6 -5 -8 0 -5 2 -3 4 3 1 -1 -2 -1 -1
-2 -0 0 -2 2 -1 3 7 4 0 1 -4 -2 -2 -1 -1 -2 1 -2 1 1 1 1 -4 -2 3 10 21 4 -3 -2 0 -3 -5 5 3 1 7 2 -4 -3 -2 1 -0 -1
-2 -1 -2 2 3 4 7 5 7 -1 -1 -3 -2 -0 1 0 -1 -5 -3 -3 -4 -3 -2 -4 -2 -0 -2 1 0 1 1 -1 -11 17 -10 30 -7 -3 -7 -6 -1 1 -1 0 1
-1 -1 -0 -3 2 4 8 11 4 2 3 -1 0 0 1 0 4 5 6 5 11 2 -2 -2 -2 0 -1 -0 0 -3 -5 -4 -1 -8 -17 -5 5 -1 0 2 -1 -2 0 1 1
-2 1 1 -4 2 4 6 12 4 3 3 4 -3 1 1 3 -8 6 -2 -3 4 1 5 5 3 3 -0 -1 -3 -16 8 -0 -3 -7 9 -8 20 -3 -0 -0 -1 -1 -0 -2 -1
Height
5754 5752 5750 5747 5745 5743 5741 5742 5742 5743 5744 5746 5746 5747 5748 5750 5751 5753 5755 5758 5759 5764 5771 5774 5779 5784 5788 5793 5798 5804 5807 5813 5815 5815 5817 5820 5823 5825 5827 5829 5831 5831 5831 5832 5833
5748 5745 5740 5736 5734 5732 5731 5731 5733 5734 5734 5735 5736 5736 5738 5740 5742 5743 5743 5746 5749 5752 5761 5764 5770 5776 5780 5787 5790 5795 5802 5809 5810 5809 5811 5816 5819 5821 5823 5825 5826 5827 5827 5829 5830
5740 5736 5731 5728 5727 5726 5724 5723 5723 5724 5725 5725 5725 5725 5726 5727 5730 5732 5730 5734 5737 5741 5750 5755 5760 5767 5772 5779 5782 5789 5798 5803 5804 5803 5807 5810 5814 5818 5819 5821 5821 5823 5824 5825 5827
5733 5729 5724 5721 5719 5718 5717 5715 5715 5714 5713 5713 5714 5714 5715 5715 5714 5717 5717 5720 5724 5730 5739 5745 5751 5757 5764 5769 5777 5783 5793 5795 5797 5797 5802 5805 5809 5813 5815 5816 5818 5818 5820 5820 5822
5725 5721 5717 5714 5712 5711 5709 5707 5705 5704 5703 5702 5701 5701 5700 5699 5698 5700 5704 5707 5711 5718 5726 5735 5740 5747 5755 5762 5769 5776 5785 5788 5789 5791 5798 5800 5805 5808 5813 5809 5811 5814 5814 5816 5819
5717 5714 5710 5707 5704 5703 5700 5698 5695 5693 5691 5689 5687 5685 5684 5683 5686 5684 5689 5693 5698 5703 5712 5722 5732 5738 5744 5753 5761 5773 5778 5781 5780 5784 5791 5796 5799 5804 5803 5802 5808 5809 5810 5814 5816
5710 5707 5702 5699 5696 5693 5691 5688 5685 5682 5679 5675 5670 5669 5669 5670 5669 5669 5670 5673 5678 5690 5698 5710 5716 5724 5736 5744 5754 5763 5768 5770 5774 5780 5786 5791 5795 5799 5793 5801 5803 5805 5807 5809 5812
5703 5699 5695 5692 5687 5683 5682 5678 5675 5670 5664 5660 5657 5655 5655 5653 5649 5651 5653 5655 5659 5669 5683 5693 5700 5711 5721 5734 5744 5752 5759 5762 5771 5775 5781 5785 5792 5788 5792 5796 5799 5801 5803 5805 5808
5695 5692 5688 5682 5679 5674 5671 5668 5664 5657 5651 5647 5644 5642 5642 5640 5636 5632 5635 5637 5641 5650 5664 5674 5684 5699 5713 5723 5734 5741 5751 5758 5764 5770 5772 5781 5784 5782 5787 5792 5795 5797 5799 5801 5803
5687 5683 5678 5673 5669 5664 5661 5656 5652 5645 5640 5636 5631 5629 5629 5625 5620 5618 5615 5615 5621 5630 5643 5655 5671 5688 5702 5713 5721 5734 5744 5755 5760 5763 5768 5773 5778 5779 5783 5787 5791 5794 5795 5798 5800
5678 5675 5670 5665 5660 5656 5651 5646 5642 5636 5630 5625 5622 5617 5616 5612 5608 5604 5604 5606 5613 5619 5632 5648 5661 5676 5699 5711 5723 5732 5746 5750 5755 5757 5763 5767 5772 5777 5779 5783 5786 5789 5790 5792 5794
5671 5667 5662 5658 5652 5647 5641 5636 5630 5626 5619 5614 5611 5607 5604 5601 5597 5596 5598 5603 5609 5617 5630 5642 5653 5682 5697 5706 5717 5730 5737 5743 5745 5752 5759 5761 5769 5771 5772 5778 5781 5783 5785 5787 5789
5663 5660 5654 5650 5644 5638 5633 5626 5620 5614 5608 5604 5601 5597 5594 5592 5590 5591 5593 5599 5607 5615 5627 5642 5662 5676 5690 5698 5709 5719 5730 5736 5742 5748 5754 5758 5765 5766 5768 5773 5776 5778 5780 5783 5784
5657 5652 5646 5643 5639 5631 5625 5618 5612 5606 5598 5596 5592 5589 5585 5583 5583 5586 5589 5596 5603 5614 5624 5639 5654 5669 5684 5694 5706 5716 5726 5730 5736 5742 5747 5753 5760 5761 5763 5768 5771 5773 5776 5778 5779
5650 5645 5639 5635 5631 5625 5618 5611 5604 5600 5591 5587 5582 5580 5577 5577 5579 5582 5586 5592 5602 5608 5620 5637 5650 5666 5678 5695 5703 5715 5720 5725 5730 5735 5743 5749 5754 5757 5758 5762 5766 5769 5772 5774 5774
5643 5639 5633 5629 5624 5618 5610 5604 5599 5594 5584 5580 5575 5572 5570 5571 5575 5578 5584 5590 5601 5607 5622 5639 5656 5666 5681 5691 5700 5707 5713 5721 5727 5732 5739 5744 5749 5752 5752 5756 5760 5763 5766 5767 5769
5636 5632 5628 5623 5619 5611 5605 5599 5592 5585 5582 5575 5571 5567 5566 5569 5574 5577 5585 5592 5599 5609 5622 5639 5652 5669 5676 5685 5693 5700 5708 5717 5723 5726 5736 5739 5743 5747 5747 5751 5755 5758 5760 5762 5763
5630 5626 5622 5618 5614 5605 5600 5594 5587 5582 5577 5572 5567 5564 5564 5569 5574 5577 5582 5587 5599 5614 5627 5637 5647 5659 5675 5680 5691 5697 5705 5712 5717 5725 5731 5734 5738 5740 5744 5747 5749 5752 5754 5756 5756
5623 5620 5617 5614 5608 5604 5598 5590 5585 5580 5576 5572 5564 5564 5566 5571 5575 5578 5587 5594 5601 5616 5630 5641 5650 5659 5671 5682 5688 5693 5700 5708 5715 5723 5727 5731 5735 5736 5739 5741 5743 5746 5749 5750 5750
5617 5614 5612 5610 5604 5600 5594 5588 5583 5579 5574 5572 5567 5568 5572 5574 5576 5583 5592 5600 5606 5618 5625 5639 5652 5659 5667 5677 5684 5693 5702 5706 5712 5719 5722 5727 5729 5730 5734 5736 5738 5741 5743 5744 5743
5610 5609 5607 5605 5601 5598 5593 5586 5582 5578 5574 5572 5570 5573 5576 5578 5581 5587 5598 5605 5614 5622 5629 5640 5650 5659 5669 5675 5683 5689 5694 5702 5709 5714 5718 5723 5727 5727 5728 5731 5733 5735 5736 5736 5736
5604 5603 5602 5602 5599 5595 5591 5585 5583 5579 5574 5571 5570 5572 5580 5583 5585 5590 5601 5609 5619 5628 5636 5645 5652 5659 5668 5675 5680 5686 5693 5697 5701 5710 5714 5719 5723 5722 5723 5725 5727 5729 5728 5729 5730
5598 5597 5598 5598 5595 5593 5589 5586 5583 5581 5577 5575 5574 5577 5582 5587 5593 5598 5605 5614 5621 5629 5637 5645 5652 5657 5664 5671 5675 5682 5691 5696 5701 5707 5710 5713 5718 5719 5720 5719 5720 5722 5723 5723 5722
5592 5592 5594 5594 5592 5590 5588 5586 5584 5583 5581 5581 5582 5585 5587 5591 5596 5604 5610 5618 5625 5632 5639 5645 5652 5658 5665 5672 5680 5686 5691 5694 5697 5700 5705 5709 5712 5713 5712 5713 5715 5716 5715 5716 5717
5587 5588 5589 5591 5590 5588 5587 5586 5585 5584 5584 5585 5588 5590 5594 5596 5601 5607 5615 5621 5628 5635 5639 5646 5651 5656 5661 5668 5672 5677 5681 5685 5688 5696 5698 5706 5704 5706 5705 5708 5709 5709 5710 5710 5711
5581 5583 5585 5587 5587 5586 5585 5584 5584 5584 5586 5587 5592 5594 5597 5603 5608 5614 5619 5624 5630 5635 5640 5645 5650 5655 5660 5664 5668 5673 5677 5680 5684 5686 5692 5694 5700 5700 5699 5701 5702 5702 5703 5704 5704
5576 5579 5581 5584 5585 5584 5585 5584 5583 5584 5586 5587 5590 5594 5599 5603 5609 5614 5619 5624 5629 5635 5639 5643 5646 5650 5655 5659 5663 5668 5673 5676 5679 5681 5688 5688 5696 5692 5694 5694 5695 5696 5697 5697 5697